Location: Barcelona
(41.3830°N, 2.1830°E)
Time: 13:57:11
(UTC+01:00)

ISS - Pass Details

Date: 07 December 2017
Orbit: 402 x 406 km, 51.6° (Epoch: 16 December)

Event Time Altitude Azimuth Distance (km) Brightness Sun altitude
Rises 18:24:18 0° 297° (WNW) 2,330 0.7 -11.5°
Reaches altitude 10° 18:27:11 10° 325° (NW) 1,469 -0.8 -12.0°
Maximum altitude 18:28:59 14° 358° (N) 1,259 -1.5 -12.3°
Enters shadow 18:30:12 12° 22° (NNE) 1,359 -1.6 -12.5°
